#timestamp,LO_Frequency,Hit,StdDev 
1645308015.9,286047004.5,N
1645308035.7,286047007.8,N
1645308055.5,286047009.6,N
1645308075.4,286047006.6,N
1645308095.2,286047008.3,N
1645308115.1,286047016.0,Y
1645308116.0,286047016.0,P
1645308135.8,286047010.6,N
1645308155.6,286047010.7,P
1645308175.5,286047006.2,N
1645308195.3,286047009.2,N
1645308215.2,286047013.6,Y
1645308235.9,286047003.5,P
1645308255.7,286047002.8,N
1645308275.6,286047001.3,N
1645308295.4,286047003.9,N
1645308315.3,286047005.8,N
1645308335.1,286047004.7,N
1645308336.0,286047004.7,N
1645308355.8,286047002.2,N
1645308375.7,286047000.5,N
1645308395.5,286046999.7,N
1645308415.3,286047002.2,N
1645308435.2,286047006.2,N
1645308455.0,286047005.4,N
1645308455.9,286047005.4,N
1645308475.8,286047003.4,N
1645308495.6,286047002.5,N
1645308515.4,286047002.3,N
1645308535.3,286046999.8,N
1645308555.1,286047007.4,N
1645308575.8,286047005.3,N
1645308595.7,286047006.0,N
1645308615.5,286047005.7,N
1645308635.4,286047007.6,Y
1645308655.2,286047002.2,P
1645308675.0,286047012.1,P
1645308675.9,286047012.1,N
1645308695.8,286047011.9,N
1645308715.6,286047005.3,N
1645308735.5,286047001.3,N
1645308755.3,286047001.5,N
1645308775.1,286047004.8,N
1645308795.9,286047000.2,N
1645308815.7,286047001.5,N
1645308835.5,286046995.5,N
1645308855.4,286047002.8,N
1645308875.2,286047002.7,N
1645308895.1,286047002.9,N
1645308896.0,286047002.9,N
1645308915.8,286047001.1,N
1645308935.6,286047002.2,N
1645308955.5,286046982.3,Y
1645308975.3,286046995.2,P
1645308995.1,286047015.4,P
1645309015.9,286047014.9,N
1645309035.7,286047011.9,N
1645309055.6,286047009.0,N
1645309075.4,286047013.5,N
1645309095.2,286047013.0,N
1645309115.1,286047016.6,N
1645309116.0,286047016.6,N
1645309135.8,286047017.7,N
1645309155.6,286047019.1,N
1645309175.5,286047024.8,Y
1645309195.3,286047013.5,P
1645309215.2,286047010.0,P
1645309235.9,286047007.6,P
1645309255.7,286047010.8,Y
1645309275.6,286047004.6,P
1645309295.4,286047002.6,N
1645309315.3,286047000.3,N
1645309335.1,286047004.1,N
1645309336.0,286047004.1,N
1645309355.8,286047004.9,N
1645309375.7,286047005.5,N
1645309395.5,286047013.3,Y
1645309415.3,286047006.7,P
1645309435.2,286047005.5,P
1645309455.0,286047001.3,N
1645309455.9,286047001.3,N
1645309475.8,286047005.8,N
1645309495.6,286047012.3,Y
1645309515.4,286047008.2,P
1645309535.3,286047011.7,P
1645309555.1,286047009.5,P
1645309575.9,286047011.9,Y
1645309595.7,286047010.4,P
1645309615.5,286047008.8,P
1645309635.4,286047003.1,P
1645309655.2,286047002.4,N
1645309675.0,286047004.4,N
1645309675.9,286047004.4,N
1645309695.8,286047006.8,N
1645309715.6,286047011.2,Y
1645309735.5,286046998.0,P
1645309755.3,286046997.9,N
1645309775.1,286047000.7,N
1645309795.9,286047001.8,N
1645309815.7,286046998.0,N
1645309835.5,286046997.8,N
1645309855.4,286046997.0,N
1645309875.2,286047002.0,N
1645309895.1,286047001.7,N
1645309896.0,286047001.7,N
1645309915.8,286046997.6,N
1645309935.6,286046995.7,N
1645309955.5,286046999.0,N
1645309975.3,286047000.1,N
1645309995.1,286047002.5,N
1645310015.9,286047005.8,N
1645310035.7,286047003.1,N
1645310055.6,286047003.0,N
1645310075.4,286047004.4,N
1645310095.2,286047004.3,N
1645310115.1,286047000.0,N
1645310116.0,286047000.0,N
1645310135.8,286047004.1,N
1645310155.7,286047006.9,N
1645310175.5,286047012.7,Y
1645310195.3,286047012.8,P
1645310215.2,286047015.1,N
1645310235.0,286047014.2,N
1645310235.9,286047014.2,N
1645310255.8,286047014.1,N
1645310275.6,286047007.2,N
1645310295.4,286047001.8,N
1645310315.3,286047000.6,N
1645310335.1,286046999.1,N
1645310355.8,286047003.3,N
1645310375.7,286047008.7,N
1645310395.5,286047003.5,N
1645310415.4,286047007.1,N
1645310435.2,286047009.2,N
1645310455.0,286047008.4,N
1645310455.9,286047008.4,N
1645310475.8,286047008.7,N
1645310495.6,286047010.1,N
1645310515.5,286047011.3,N
1645310535.3,286047011.9,N
1645310555.1,286047010.7,N
1645310575.9,286047009.7,N
1645310595.7,286047015.5,Y
1645310615.5,286047003.7,P
1645310635.4,286047003.8,N
1645310655.2,286047004.3,N
1645310675.1,286047004.9,N
1645310676.0,286047004.9,N
1645310695.8,286047009.2,Y
1645310715.6,286046993.8,P
1645310735.5,286046991.2,N
1645310755.3,286046989.4,N
1645310775.2,286046989.4,N
1645310795.9,286046987.0,N
1645310815.7,286046989.2,N
1645310835.6,286046992.1,N
1645310855.4,286046993.6,N
1645310875.2,286046995.2,N
1645310895.1,286046993.4,N
1645310896.0,286046993.4,N
1645310915.8,286046998.3,N
1645310935.7,286046998.7,N
1645310955.5,286047000.8,N
1645310975.3,286047001.9,N
1645310995.2,286047000.9,N
1645311015.0,286047001.4,N
1645311015.9,286047001.4,N
1645311035.8,286047003.2,N
1645311055.6,286047005.6,N
1645311075.4,286047007.7,N
1645311095.3,286047015.0,N
1645311115.1,286047010.2,N
1645311135.9,286047010.2,N
1645311155.7,286047008.0,N
1645311175.5,286047004.6,N
1645311195.4,286047007.0,N
1645311215.2,286047007.7,N
1645311235.0,286047004.9,N
1645311235.9,286047004.9,N
1645311255.8,286047002.3,N
1645311275.6,286047003.8,N
1645311295.5,286047006.6,N
1645311315.3,286047006.3,N
1645311335.1,286047007.4,N
1645311355.9,286047006.5,N
1645311375.7,286047012.3,N
1645311395.6,286047010.6,N
1645311415.4,286047000.4,N
1645311435.2,286046995.9,N
1645311455.1,286046992.2,N
1645311456.0,286046992.2,N
1645311475.8,286046985.3,N
1645311495.6,286046982.6,N
1645311515.5,286046988.1,N
1645311535.3,286046989.7,N
1645311555.2,286046992.6,N
1645311575.9,286046985.7,N
1645311595.7,286046982.5,N
